Year,Month,Day,Hour,Minute,Value (Times are PST for temperature in C)
2017,09,02,00,00,16.20
2017,09,02,00,01,16.20
2017,09,02,00,02,16.10
2017,09,02,00,03,16.10
2017,09,02,00,04,16.10
2017,09,02,00,05,16.10
2017,09,02,00,06,16.10
2017,09,02,00,07,16.10
2017,09,02,00,08,16.10
2017,09,02,00,09,16.10
2017,09,02,00,10,16.00
2017,09,02,00,11,16.00
2017,09,02,00,12,16.00
2017,09,02,00,13,16.00
2017,09,02,00,14,16.00
2017,09,02,00,15,16.00
2017,09,02,00,16,15.90
2017,09,02,00,17,15.90
2017,09,02,00,18,15.90
2017,09,02,00,19,15.90
2017,09,02,00,20,15.90
2017,09,02,00,21,15.90
2017,09,02,00,22,15.90
2017,09,02,00,23,15.90
2017,09,02,00,24,15.90
2017,09,02,00,25,15.90
2017,09,02,00,26,15.90
2017,09,02,00,27,15.90
2017,09,02,00,28,15.90
2017,09,02,00,29,15.90
2017,09,02,00,30,15.90
2017,09,02,00,31,15.90
2017,09,02,00,32,15.90
2017,09,02,00,33,15.90
2017,09,02,00,34,15.90
2017,09,02,00,35,15.90
2017,09,02,00,36,15.90
2017,09,02,00,37,15.90
2017,09,02,00,38,15.90
2017,09,02,00,39,15.90
2017,09,02,00,40,15.90
2017,09,02,00,41,15.90
2017,09,02,00,42,15.90
2017,09,02,00,43,15.90
2017,09,02,00,44,15.90
2017,09,02,00,45,15.90
2017,09,02,00,46,15.90
2017,09,02,00,47,15.90
2017,09,02,00,48,15.90
2017,09,02,00,49,15.90
2017,09,02,00,50,15.80
2017,09,02,00,51,15.80
2017,09,02,00,52,15.80
2017,09,02,00,53,15.80
2017,09,02,00,54,15.80
2017,09,02,00,55,15.70
2017,09,02,00,56,15.70
2017,09,02,00,57,15.70
2017,09,02,00,58,15.70
2017,09,02,00,59,15.60
2017,09,02,01,00,15.60
2017,09,02,01,01,15.60
2017,09,02,01,02,15.60
2017,09,02,01,03,15.50
2017,09,02,01,04,15.50
2017,09,02,01,05,15.50
2017,09,02,01,06,15.50
2017,09,02,01,07,15.50
2017,09,02,01,08,15.50
2017,09,02,01,09,15.50
2017,09,02,01,10,15.50
2017,09,02,01,11,15.50
2017,09,02,01,12,15.50
2017,09,02,01,13,15.50
2017,09,02,01,14,15.60
2017,09,02,01,15,15.60
2017,09,02,01,16,15.60
2017,09,02,01,17,15.60
2017,09,02,01,18,15.60
2017,09,02,01,19,15.60
2017,09,02,01,20,15.70
2017,09,02,01,21,15.70
2017,09,02,01,22,15.70
2017,09,02,01,23,15.70
2017,09,02,01,24,15.70
2017,09,02,01,25,15.70
2017,09,02,01,26,15.80
2017,09,02,01,27,15.80
2017,09,02,01,28,15.80
2017,09,02,01,29,15.80
2017,09,02,01,30,15.80
2017,09,02,01,31,15.80
2017,09,02,01,32,15.80
2017,09,02,01,33,15.80
2017,09,02,01,34,15.90
2017,09,02,01,35,15.90
2017,09,02,01,36,15.90
2017,09,02,01,37,15.90
2017,09,02,01,38,15.90
2017,09,02,01,39,15.90
2017,09,02,01,40,15.90
2017,09,02,01,41,15.90
2017,09,02,01,42,15.90
2017,09,02,01,43,16.00
2017,09,02,01,44,16.00
2017,09,02,01,45,16.00
2017,09,02,01,46,16.00
2017,09,02,01,47,16.00
2017,09,02,01,48,16.00
2017,09,02,01,49,16.00
2017,09,02,01,50,16.00
2017,09,02,01,51,16.00
2017,09,02,01,52,16.00
2017,09,02,01,53,16.00
2017,09,02,01,54,16.00
2017,09,02,01,55,16.00
2017,09,02,01,56,16.00
2017,09,02,01,57,16.00
2017,09,02,01,58,16.10
2017,09,02,01,59,16.10
2017,09,02,02,00,16.10
2017,09,02,02,01,16.10
2017,09,02,02,02,16.10
2017,09,02,02,03,16.10
2017,09,02,02,04,16.10
2017,09,02,02,05,16.10
2017,09,02,02,06,16.10
2017,09,02,02,07,16.10
2017,09,02,02,08,16.10
2017,09,02,02,09,16.00
2017,09,02,02,10,16.00
2017,09,02,02,11,16.00
2017,09,02,02,12,16.00
2017,09,02,02,13,16.00
2017,09,02,02,14,15.90
2017,09,02,02,15,15.90
2017,09,02,02,16,15.90
2017,09,02,02,17,15.90
2017,09,02,02,18,15.90
2017,09,02,02,19,15.90
2017,09,02,02,20,15.80
2017,09,02,02,21,15.80
2017,09,02,02,22,15.80
2017,09,02,02,23,15.80
2017,09,02,02,24,15.80
2017,09,02,02,25,15.80
2017,09,02,02,26,15.80
2017,09,02,02,27,15.80
2017,09,02,02,28,15.80
2017,09,02,02,29,15.80
2017,09,02,02,30,15.80
2017,09,02,02,31,15.70
2017,09,02,02,32,15.80
2017,09,02,02,33,15.80
2017,09,02,02,34,15.80
2017,09,02,02,35,15.80
2017,09,02,02,36,15.80
2017,09,02,02,37,15.80
2017,09,02,02,38,15.80
2017,09,02,02,39,15.80
2017,09,02,02,40,15.80
2017,09,02,02,41,15.80
2017,09,02,02,42,15.80
2017,09,02,02,43,15.80
2017,09,02,02,44,15.80
2017,09,02,02,45,15.80
2017,09,02,02,46,15.90
2017,09,02,02,47,15.90
2017,09,02,02,48,15.90
2017,09,02,02,49,15.90
2017,09,02,02,50,15.90
2017,09,02,02,51,15.90
2017,09,02,02,52,15.90
2017,09,02,02,53,15.90
2017,09,02,02,54,15.90
2017,09,02,02,55,15.90
2017,09,02,02,56,15.90
2017,09,02,02,57,16.00
2017,09,02,02,58,16.00
2017,09,02,02,59,16.10
2017,09,02,03,00,16.20
2017,09,02,03,01,16.20
2017,09,02,03,02,16.30
2017,09,02,03,03,16.40
2017,09,02,03,04,16.40
2017,09,02,03,05,16.50
2017,09,02,03,06,16.60
2017,09,02,03,07,16.60
2017,09,02,03,08,16.70
2017,09,02,03,09,16.70
2017,09,02,03,10,16.80
2017,09,02,03,11,16.80
2017,09,02,03,12,16.80
2017,09,02,03,13,16.80
2017,09,02,03,14,16.90
2017,09,02,03,15,16.90
2017,09,02,03,16,17.00
2017,09,02,03,17,17.10
2017,09,02,03,18,17.10
2017,09,02,03,19,17.10
2017,09,02,03,20,17.20
2017,09,02,03,21,17.20
2017,09,02,03,22,17.20
2017,09,02,03,23,17.20
2017,09,02,03,24,17.20
2017,09,02,03,25,17.20
2017,09,02,03,26,17.20
2017,09,02,03,27,17.20
2017,09,02,03,28,17.20
2017,09,02,03,29,17.20
2017,09,02,03,30,17.20
2017,09,02,03,31,17.10
2017,09,02,03,32,17.10
2017,09,02,03,33,17.10
2017,09,02,03,34,17.00
2017,09,02,03,35,17.00
2017,09,02,03,36,16.90
2017,09,02,03,37,16.80
2017,09,02,03,38,16.80
2017,09,02,03,39,16.70
2017,09,02,03,40,16.70
2017,09,02,03,41,16.70
2017,09,02,03,42,16.60
2017,09,02,03,43,16.60
2017,09,02,03,44,16.50
2017,09,02,03,45,16.50
2017,09,02,03,46,16.40
2017,09,02,03,47,16.40
2017,09,02,03,48,16.40
2017,09,02,03,49,16.30
2017,09,02,03,50,16.30
2017,09,02,03,51,16.30
2017,09,02,03,52,16.20
2017,09,02,03,53,16.20
2017,09,02,03,54,16.20
2017,09,02,03,55,16.10
2017,09,02,03,56,16.10
2017,09,02,03,57,16.10
2017,09,02,03,58,16.00
2017,09,02,03,59,16.00
2017,09,02,04,00,15.90
2017,09,02,04,01,15.90
2017,09,02,04,02,15.90
2017,09,02,04,03,15.90
2017,09,02,04,04,15.80
2017,09,02,04,05,15.80
2017,09,02,04,06,15.80
2017,09,02,04,07,15.80
2017,09,02,04,08,15.80
2017,09,02,04,09,15.70
2017,09,02,04,10,15.70
2017,09,02,04,11,15.70
2017,09,02,04,12,15.70
2017,09,02,04,13,15.70
2017,09,02,04,14,15.70
2017,09,02,04,15,15.60
2017,09,02,04,16,15.60
2017,09,02,04,17,15.60
2017,09,02,04,18,15.60
2017,09,02,04,19,15.60
2017,09,02,04,20,15.60
2017,09,02,04,21,15.60
2017,09,02,04,22,15.50
2017,09,02,04,23,15.50
2017,09,02,04,24,15.50
2017,09,02,04,25,15.60
2017,09,02,04,26,15.60
2017,09,02,04,27,15.60
2017,09,02,04,28,15.60
2017,09,02,04,29,15.60
2017,09,02,04,30,15.60
2017,09,02,04,31,15.50
2017,09,02,04,32,15.50
2017,09,02,04,33,15.50
2017,09,02,04,34,15.50
2017,09,02,04,35,15.40
2017,09,02,04,36,15.40
2017,09,02,04,37,15.40
2017,09,02,04,38,15.40
2017,09,02,04,39,15.40
2017,09,02,04,40,15.40
2017,09,02,04,41,15.30
2017,09,02,04,42,15.30
2017,09,02,04,43,15.30
2017,09,02,04,44,15.30
2017,09,02,04,45,15.30
2017,09,02,04,46,15.30
2017,09,02,04,47,15.30
2017,09,02,04,48,15.30
2017,09,02,04,49,15.30
2017,09,02,04,50,15.30
2017,09,02,04,51,15.30
2017,09,02,04,52,15.30
2017,09,02,04,53,15.30
2017,09,02,04,54,15.30
2017,09,02,04,55,15.30
2017,09,02,04,56,15.30
2017,09,02,04,57,15.30
2017,09,02,04,58,15.30
2017,09,02,04,59,15.30
2017,09,02,05,00,15.30
2017,09,02,05,01,15.30
2017,09,02,05,02,15.30
2017,09,02,05,03,15.30
2017,09,02,05,04,15.30
2017,09,02,05,05,15.40
2017,09,02,05,06,15.30
2017,09,02,05,07,15.30
2017,09,02,05,08,15.30
2017,09,02,05,09,15.30
2017,09,02,05,10,15.30
2017,09,02,05,11,15.30
2017,09,02,05,12,15.30
2017,09,02,05,13,15.20
2017,09,02,05,14,15.20
2017,09,02,05,15,15.20
2017,09,02,05,16,15.20
2017,09,02,05,17,15.20
2017,09,02,05,18,15.10
2017,09,02,05,19,15.10
2017,09,02,05,20,15.10
2017,09,02,05,21,15.10
2017,09,02,05,22,15.00
2017,09,02,05,23,15.00
2017,09,02,05,24,14.90
2017,09,02,05,25,14.90
2017,09,02,05,26,14.90
2017,09,02,05,27,14.90
2017,09,02,05,28,14.80
2017,09,02,05,29,14.80
2017,09,02,05,30,14.80
2017,09,02,05,31,14.80
2017,09,02,05,32,14.80
2017,09,02,05,33,14.80
2017,09,02,05,34,14.70
2017,09,02,05,35,14.70
2017,09,02,05,36,14.70
2017,09,02,05,37,14.70
2017,09,02,05,38,14.70
2017,09,02,05,39,14.70
2017,09,02,05,40,14.70
2017,09,02,05,41,14.70
2017,09,02,05,42,14.70
2017,09,02,05,43,14.70
2017,09,02,05,44,14.70
2017,09,02,05,45,14.70
2017,09,02,05,46,14.70
2017,09,02,05,47,14.70
2017,09,02,05,48,14.70
2017,09,02,05,49,14.70
2017,09,02,05,50,14.70
2017,09,02,05,51,14.70
2017,09,02,05,52,14.70
2017,09,02,05,53,14.70
2017,09,02,05,54,14.70
2017,09,02,05,55,14.60
2017,09,02,05,56,14.60
2017,09,02,05,57,14.60
2017,09,02,05,58,14.60
2017,09,02,05,59,14.60
2017,09,02,06,00,14.50
2017,09,02,06,01,14.50
2017,09,02,06,02,14.50
2017,09,02,06,03,14.50
2017,09,02,06,04,14.40
2017,09,02,06,05,14.50
2017,09,02,06,06,14.50
2017,09,02,06,07,14.50
2017,09,02,06,08,14.60
2017,09,02,06,09,14.60
2017,09,02,06,10,14.60
2017,09,02,06,11,14.60
2017,09,02,06,12,14.70
2017,09,02,06,13,14.70
2017,09,02,06,14,14.70
2017,09,02,06,15,14.70
2017,09,02,06,16,14.70
2017,09,02,06,17,14.80
2017,09,02,06,18,14.80
2017,09,02,06,19,14.80
2017,09,02,06,20,14.90
2017,09,02,06,21,14.90
2017,09,02,06,22,14.90
2017,09,02,06,23,14.90
2017,09,02,06,24,14.90
2017,09,02,06,25,14.90
2017,09,02,06,26,14.90
2017,09,02,06,27,14.90
2017,09,02,06,28,15.00
2017,09,02,06,29,15.00
2017,09,02,06,30,15.00
2017,09,02,06,31,15.00
2017,09,02,06,32,15.00
2017,09,02,06,33,15.00
2017,09,02,06,34,15.00
2017,09,02,06,35,14.90
2017,09,02,06,36,14.90
2017,09,02,06,37,14.90
2017,09,02,06,38,14.90
2017,09,02,06,39,14.90
2017,09,02,06,40,14.90
2017,09,02,06,41,14.90
2017,09,02,06,42,14.80
2017,09,02,06,43,14.80
2017,09,02,06,44,14.80
2017,09,02,06,45,14.80
2017,09,02,06,46,14.80
2017,09,02,06,47,14.80
2017,09,02,06,48,14.80
2017,09,02,06,49,14.80
2017,09,02,06,50,14.80
2017,09,02,06,51,14.70
2017,09,02,06,52,14.70
2017,09,02,06,53,14.70
2017,09,02,06,54,14.70
2017,09,02,06,55,14.70
2017,09,02,06,56,14.70
2017,09,02,06,57,14.70
2017,09,02,06,58,14.70
2017,09,02,06,59,14.70
2017,09,02,07,00,14.70
2017,09,02,07,01,14.80
2017,09,02,07,02,14.80
2017,09,02,07,03,14.80
2017,09,02,07,04,14.80
2017,09,02,07,05,14.90
2017,09,02,07,06,14.90
2017,09,02,07,07,14.90
2017,09,02,07,08,15.00
2017,09,02,07,09,15.10
2017,09,02,07,10,15.10
2017,09,02,07,11,15.20
2017,09,02,07,12,15.20
2017,09,02,07,13,15.30
2017,09,02,07,14,15.30
2017,09,02,07,15,15.40
2017,09,02,07,16,15.50
2017,09,02,07,17,15.50
2017,09,02,07,18,15.60
2017,09,02,07,19,15.70
2017,09,02,07,20,15.80
2017,09,02,07,21,15.90
2017,09,02,07,22,16.00
2017,09,02,07,23,16.10
2017,09,02,07,24,16.10
2017,09,02,07,25,16.20
2017,09,02,07,26,16.30
2017,09,02,07,27,16.40
2017,09,02,07,28,16.50
2017,09,02,07,29,16.60
2017,09,02,07,30,16.70
2017,09,02,07,31,16.80
2017,09,02,07,32,16.80
2017,09,02,07,33,16.90
2017,09,02,07,34,17.00
2017,09,02,07,35,17.10
2017,09,02,07,36,17.20
2017,09,02,07,37,17.30
2017,09,02,07,38,17.40
2017,09,02,07,39,17.50
2017,09,02,07,40,17.60
2017,09,02,07,41,17.60
2017,09,02,07,42,17.70
2017,09,02,07,43,17.80
2017,09,02,07,44,17.90
2017,09,02,07,45,18.00
2017,09,02,07,46,18.00
2017,09,02,07,47,18.10
2017,09,02,07,48,18.20
2017,09,02,07,49,18.30
2017,09,02,07,50,18.40
2017,09,02,07,51,18.40
2017,09,02,07,52,18.50
2017,09,02,07,53,18.50
2017,09,02,07,54,18.60
2017,09,02,07,55,18.60
2017,09,02,07,56,18.70
2017,09,02,07,57,18.70
2017,09,02,07,58,18.70
2017,09,02,07,59,18.80
2017,09,02,08,00,18.80
2017,09,02,08,01,18.80
2017,09,02,08,02,18.90
2017,09,02,08,03,18.90
2017,09,02,08,04,19.00
2017,09,02,08,05,19.10
2017,09,02,08,06,19.10
2017,09,02,08,07,19.20
2017,09,02,08,08,19.20
2017,09,02,08,09,19.30
2017,09,02,08,10,19.30
2017,09,02,08,11,19.40
2017,09,02,08,12,19.40
2017,09,02,08,13,19.50
2017,09,02,08,14,19.60
2017,09,02,08,15,19.60
2017,09,02,08,16,19.60
2017,09,02,08,17,19.60
2017,09,02,08,18,19.60
2017,09,02,08,19,19.60
2017,09,02,08,20,19.60
2017,09,02,08,21,19.70
2017,09,02,08,22,19.70
2017,09,02,08,23,19.70
2017,09,02,08,24,19.80
2017,09,02,08,25,19.80
2017,09,02,08,26,19.80
2017,09,02,08,27,19.80
2017,09,02,08,28,19.80
2017,09,02,08,29,19.90
2017,09,02,08,30,19.90
2017,09,02,08,31,20.00
2017,09,02,08,32,20.00
2017,09,02,08,33,20.10
2017,09,02,08,34,20.10
2017,09,02,08,35,20.10
2017,09,02,08,36,20.20
2017,09,02,08,37,20.20
2017,09,02,08,38,20.20
2017,09,02,08,39,20.20
2017,09,02,08,40,20.20
2017,09,02,08,41,20.30
2017,09,02,08,42,20.30
2017,09,02,08,43,20.30
2017,09,02,08,44,20.40
2017,09,02,08,45,20.40
2017,09,02,08,46,20.40
2017,09,02,08,47,20.40
2017,09,02,08,48,20.40
2017,09,02,08,49,20.50
2017,09,02,08,50,20.60
2017,09,02,08,51,20.60
2017,09,02,08,52,20.60
2017,09,02,08,53,20.70
2017,09,02,08,54,20.70
2017,09,02,08,55,20.70
2017,09,02,08,56,20.80
2017,09,02,08,57,20.80
2017,09,02,08,58,20.90
2017,09,02,08,59,21.00
2017,09,02,09,00,21.10
2017,09,02,09,01,21.20
2017,09,02,09,02,21.20
2017,09,02,09,03,21.20
2017,09,02,09,04,21.20
2017,09,02,09,05,21.20
2017,09,02,09,06,21.30
2017,09,02,09,07,21.30
2017,09,02,09,08,21.30
2017,09,02,09,09,21.30
2017,09,02,09,10,21.30
2017,09,02,09,11,21.30
2017,09,02,09,12,21.40
2017,09,02,09,13,21.40
2017,09,02,09,14,21.40
2017,09,02,09,15,21.50
2017,09,02,09,16,21.50
2017,09,02,09,17,21.60
2017,09,02,09,18,21.70
2017,09,02,09,19,21.80
2017,09,02,09,20,21.80
2017,09,02,09,21,21.90
2017,09,02,09,22,22.00
2017,09,02,09,23,22.10
2017,09,02,09,24,22.20
2017,09,02,09,25,22.30
2017,09,02,09,26,22.40
2017,09,02,09,27,22.50
2017,09,02,09,28,22.60
2017,09,02,09,29,22.60
2017,09,02,09,30,22.70
2017,09,02,09,31,22.80
2017,09,02,09,32,22.80
2017,09,02,09,33,22.90
2017,09,02,09,34,23.00
2017,09,02,09,35,23.00
2017,09,02,09,36,23.00
2017,09,02,09,37,23.00
2017,09,02,09,38,23.00
2017,09,02,09,39,23.10
2017,09,02,09,40,23.10
2017,09,02,09,41,23.10
2017,09,02,09,42,23.10
2017,09,02,09,43,23.10
2017,09,02,09,44,23.10
2017,09,02,09,45,23.10
2017,09,02,09,46,23.10
2017,09,02,09,47,23.20
2017,09,02,09,48,23.20
2017,09,02,09,49,23.20
2017,09,02,09,50,23.20
2017,09,02,09,51,23.20
2017,09,02,09,52,23.20
2017,09,02,09,53,23.20
2017,09,02,09,54,23.20
2017,09,02,09,55,23.30
2017,09,02,09,56,23.30
2017,09,02,09,57,23.30
2017,09,02,09,58,23.30
2017,09,02,09,59,23.30
2017,09,02,10,00,23.40
2017,09,02,10,01,23.40
2017,09,02,10,02,23.50
2017,09,02,10,03,23.50
2017,09,02,10,04,23.60
2017,09,02,10,05,23.70
2017,09,02,10,06,23.70
2017,09,02,10,07,23.80
2017,09,02,10,08,23.80
2017,09,02,10,09,23.80
2017,09,02,10,10,23.80
2017,09,02,10,11,23.90
2017,09,02,10,12,23.90
2017,09,02,10,13,23.90
2017,09,02,10,14,23.90
2017,09,02,10,15,24.00
2017,09,02,10,16,24.00
2017,09,02,10,17,24.10
2017,09,02,10,18,24.10
2017,09,02,10,19,24.20
2017,09,02,10,20,24.20
2017,09,02,10,21,24.20
2017,09,02,10,22,24.20
2017,09,02,10,23,24.10
2017,09,02,10,24,24.10
2017,09,02,10,25,24.10
2017,09,02,10,26,24.10
2017,09,02,10,27,24.10
2017,09,02,10,28,24.10
2017,09,02,10,29,24.10
2017,09,02,10,30,24.10
2017,09,02,10,31,24.10
2017,09,02,10,32,24.10
2017,09,02,10,33,24.10
2017,09,02,10,34,24.10
2017,09,02,10,35,24.10
2017,09,02,10,36,24.10
2017,09,02,10,37,24.20
2017,09,02,10,38,24.20
2017,09,02,10,39,24.20
2017,09,02,10,40,24.20
2017,09,02,10,41,24.20
2017,09,02,10,42,24.30
2017,09,02,10,43,24.30
2017,09,02,10,44,24.30
2017,09,02,10,45,24.30
2017,09,02,10,46,24.40
2017,09,02,10,47,24.40
2017,09,02,10,48,24.50
2017,09,02,10,49,24.50
2017,09,02,10,50,24.60
2017,09,02,10,51,24.70
2017,09,02,10,52,24.70
2017,09,02,10,53,24.80
2017,09,02,10,54,24.80
2017,09,02,10,55,24.80
2017,09,02,10,56,24.90
2017,09,02,10,57,25.00
2017,09,02,10,58,25.00
2017,09,02,10,59,25.10
2017,09,02,11,00,25.20
2017,09,02,11,01,25.20
2017,09,02,11,02,25.20
2017,09,02,11,03,25.20
2017,09,02,11,04,25.20
2017,09,02,11,05,25.20
2017,09,02,11,06,25.20
2017,09,02,11,07,25.20
2017,09,02,11,08,25.20
2017,09,02,11,09,25.20
2017,09,02,11,10,25.20
2017,09,02,11,11,25.10
2017,09,02,11,12,25.10
2017,09,02,11,13,25.10
2017,09,02,11,14,25.10
2017,09,02,11,15,25.10
2017,09,02,11,16,25.10
2017,09,02,11,17,25.10
2017,09,02,11,18,25.10
2017,09,02,11,19,25.10
2017,09,02,11,20,25.20
2017,09,02,11,21,25.20
2017,09,02,11,22,25.20
2017,09,02,11,23,25.30
2017,09,02,11,24,25.30
2017,09,02,11,25,25.30
2017,09,02,11,26,25.30
2017,09,02,11,27,25.30
2017,09,02,11,28,25.30
2017,09,02,11,29,25.30
2017,09,02,11,30,25.30
2017,09,02,11,31,25.30
2017,09,02,11,32,25.30
2017,09,02,11,33,25.30
2017,09,02,11,34,25.30
2017,09,02,11,35,25.30
2017,09,02,11,36,25.30
2017,09,02,11,37,25.30
2017,09,02,11,38,25.40
2017,09,02,11,39,25.40
2017,09,02,11,40,25.40
2017,09,02,11,41,25.40
2017,09,02,11,42,25.40
2017,09,02,11,43,25.30
2017,09,02,11,44,25.30
2017,09,02,11,45,25.30
2017,09,02,11,46,25.30
2017,09,02,11,47,25.20
2017,09,02,11,48,25.20
2017,09,02,11,49,25.20
2017,09,02,11,50,25.20
2017,09,02,11,51,25.20
2017,09,02,11,52,25.20
2017,09,02,11,53,25.20
2017,09,02,11,54,25.20
2017,09,02,11,55,25.30
2017,09,02,11,56,25.30
2017,09,02,11,57,25.30
2017,09,02,11,58,25.30
2017,09,02,11,59,25.30
2017,09,02,12,00,25.40
2017,09,02,12,01,25.40
2017,09,02,12,02,25.40
2017,09,02,12,03,25.50
2017,09,02,12,04,25.50
2017,09,02,12,05,25.60
2017,09,02,12,06,25.60
2017,09,02,12,07,25.70
2017,09,02,12,08,25.80
2017,09,02,12,09,25.80
2017,09,02,12,10,25.90
2017,09,02,12,11,26.00
2017,09,02,12,12,26.10
2017,09,02,12,13,26.10
2017,09,02,12,14,26.20
2017,09,02,12,15,26.20
2017,09,02,12,16,26.20
2017,09,02,12,17,26.20
2017,09,02,12,18,26.30
2017,09,02,12,19,26.30
2017,09,02,12,20,26.40
2017,09,02,12,21,26.40
2017,09,02,12,22,26.50
2017,09,02,12,23,26.50
2017,09,02,12,24,26.60
2017,09,02,12,25,26.60
2017,09,02,12,26,26.60
2017,09,02,12,27,26.70
2017,09,02,12,28,26.70
2017,09,02,12,29,26.70
2017,09,02,12,30,26.70
2017,09,02,12,31,26.70
2017,09,02,12,32,26.80
2017,09,02,12,33,26.80
2017,09,02,12,34,26.90
2017,09,02,12,35,26.90
2017,09,02,12,36,27.00
2017,09,02,12,37,27.00
2017,09,02,12,38,27.10
2017,09,02,12,39,27.10
2017,09,02,12,40,27.20
2017,09,02,12,41,27.20
2017,09,02,12,42,27.20
2017,09,02,12,43,27.30
2017,09,02,12,44,27.30
2017,09,02,12,45,27.30
2017,09,02,12,46,27.40
2017,09,02,12,47,27.40
2017,09,02,12,48,27.40
2017,09,02,12,49,27.40
2017,09,02,12,50,27.50
2017,09,02,12,51,27.60
2017,09,02,12,52,27.50
2017,09,02,12,53,27.50
2017,09,02,12,54,27.40
2017,09,02,12,55,27.30
2017,09,02,12,56,27.20
2017,09,02,12,57,27.20
2017,09,02,12,58,27.10
2017,09,02,12,59,27.00
2017,09,02,13,00,27.00
2017,09,02,13,01,26.90
2017,09,02,13,02,26.90
2017,09,02,13,03,26.90
2017,09,02,13,04,26.80
2017,09,02,13,05,26.80
2017,09,02,13,06,26.80
2017,09,02,13,07,26.80
2017,09,02,13,08,26.80
2017,09,02,13,09,26.80
2017,09,02,13,10,26.80
2017,09,02,13,11,26.80
2017,09,02,13,12,26.80
2017,09,02,13,13,26.90
2017,09,02,13,14,26.90
2017,09,02,13,15,26.90
2017,09,02,13,16,27.00
2017,09,02,13,17,27.10
2017,09,02,13,18,27.20
2017,09,02,13,19,27.30
2017,09,02,13,20,27.30
2017,09,02,13,21,27.30
2017,09,02,13,22,27.30
2017,09,02,13,23,27.20
2017,09,02,13,24,27.20
2017,09,02,13,25,27.20
2017,09,02,13,26,27.20
2017,09,02,13,27,27.20
2017,09,02,13,28,27.20
2017,09,02,13,29,27.20
2017,09,02,13,30,27.20
2017,09,02,13,31,27.30
2017,09,02,13,32,27.30
2017,09,02,13,33,27.30
2017,09,02,13,34,27.30
2017,09,02,13,35,27.30
2017,09,02,13,36,27.30
2017,09,02,13,37,27.30
2017,09,02,13,38,27.30
2017,09,02,13,39,27.30
2017,09,02,13,40,27.30
2017,09,02,13,41,27.20
2017,09,02,13,42,27.20
2017,09,02,13,43,27.20
2017,09,02,13,44,27.20
2017,09,02,13,45,27.20
2017,09,02,13,46,27.20
2017,09,02,13,47,27.20
2017,09,02,13,48,27.20
2017,09,02,13,49,27.20
2017,09,02,13,50,27.20
2017,09,02,13,51,27.20
2017,09,02,13,52,27.20
2017,09,02,13,53,27.20
2017,09,02,13,54,27.20
2017,09,02,13,55,27.10
2017,09,02,13,56,27.10
2017,09,02,13,57,27.10
2017,09,02,13,58,27.00
2017,09,02,13,59,27.00
2017,09,02,14,00,26.90
2017,09,02,14,01,26.90
2017,09,02,14,02,26.90
2017,09,02,14,03,26.90
2017,09,02,14,04,26.90
2017,09,02,14,05,26.90
2017,09,02,14,06,26.80
2017,09,02,14,07,26.80
2017,09,02,14,08,26.70
2017,09,02,14,09,26.70
2017,09,02,14,10,26.80
2017,09,02,14,11,26.80
2017,09,02,14,12,26.80
2017,09,02,14,13,26.70
2017,09,02,14,14,26.70
2017,09,02,14,15,26.60
2017,09,02,14,16,26.60
2017,09,02,14,17,26.50
2017,09,02,14,18,26.60
2017,09,02,14,19,26.60
2017,09,02,14,20,26.60
2017,09,02,14,21,26.70
2017,09,02,14,22,26.80
2017,09,02,14,23,26.90
2017,09,02,14,24,27.00
2017,09,02,14,25,27.10
2017,09,02,14,26,27.20
2017,09,02,14,27,27.20
2017,09,02,14,28,27.20
2017,09,02,14,29,27.20
2017,09,02,14,30,27.20
2017,09,02,14,31,27.20
2017,09,02,14,32,27.20
2017,09,02,14,33,27.20
2017,09,02,14,34,27.20
2017,09,02,14,35,27.20
2017,09,02,14,36,27.30
2017,09,02,14,37,27.30
2017,09,02,14,38,27.30
2017,09,02,14,39,27.40
2017,09,02,14,40,27.50
2017,09,02,14,41,27.60
2017,09,02,14,42,27.60
2017,09,02,14,43,27.70
2017,09,02,14,44,27.70
2017,09,02,14,45,27.80
2017,09,02,14,46,27.90
2017,09,02,14,47,27.90
2017,09,02,14,48,27.90
2017,09,02,14,49,27.90
2017,09,02,14,50,27.80
2017,09,02,14,51,27.80
2017,09,02,14,52,27.80
2017,09,02,14,53,27.80
2017,09,02,14,54,27.80
2017,09,02,14,55,27.80
2017,09,02,14,56,27.80
2017,09,02,14,57,27.90
2017,09,02,14,58,27.90
2017,09,02,14,59,27.90
2017,09,02,15,00,27.90
2017,09,02,15,01,27.90
2017,09,02,15,02,27.90
2017,09,02,15,03,27.80
2017,09,02,15,04,27.80
2017,09,02,15,05,27.70
2017,09,02,15,06,27.70
2017,09,02,15,07,27.70
2017,09,02,15,08,27.60
2017,09,02,15,09,27.60
2017,09,02,15,10,27.60
2017,09,02,15,11,27.60
2017,09,02,15,12,27.60
2017,09,02,15,13,27.50
2017,09,02,15,14,27.50
2017,09,02,15,15,27.40
2017,09,02,15,16,27.40
2017,09,02,15,17,27.40
2017,09,02,15,18,27.30
2017,09,02,15,19,27.20
2017,09,02,15,20,27.20
2017,09,02,15,21,27.10
2017,09,02,15,22,27.10
2017,09,02,15,23,27.00
2017,09,02,15,24,26.90
2017,09,02,15,25,26.80
2017,09,02,15,26,26.70
2017,09,02,15,27,26.60
2017,09,02,15,28,26.60
2017,09,02,15,29,26.50
2017,09,02,15,30,26.40
2017,09,02,15,31,26.40
2017,09,02,15,32,26.40
2017,09,02,15,33,26.40
2017,09,02,15,34,26.40
2017,09,02,15,35,26.30
2017,09,02,15,36,26.30
2017,09,02,15,37,26.20
2017,09,02,15,38,26.20
2017,09,02,15,39,26.20
2017,09,02,15,40,26.20
2017,09,02,15,41,26.20
2017,09,02,15,42,26.10
2017,09,02,15,43,26.10
2017,09,02,15,44,26.10
2017,09,02,15,45,26.20
2017,09,02,15,46,26.20
2017,09,02,15,47,26.30
2017,09,02,15,48,26.30
2017,09,02,15,49,26.30
2017,09,02,15,50,26.30
2017,09,02,15,51,26.30
2017,09,02,15,52,26.40
2017,09,02,15,53,26.50
2017,09,02,15,54,26.60
2017,09,02,15,55,26.60
2017,09,02,15,56,26.70
2017,09,02,15,57,26.70
2017,09,02,15,58,26.80
2017,09,02,15,59,26.80
2017,09,02,16,00,26.80
2017,09,02,16,01,26.80
2017,09,02,16,02,26.90
2017,09,02,16,03,27.00
2017,09,02,16,04,27.10
2017,09,02,16,05,27.10
2017,09,02,16,06,27.10
2017,09,02,16,07,27.20
2017,09,02,16,08,27.20
2017,09,02,16,09,27.20
2017,09,02,16,10,27.20
2017,09,02,16,11,27.20
2017,09,02,16,12,27.30
2017,09,02,16,13,27.30
2017,09,02,16,14,27.30
2017,09,02,16,15,27.30
2017,09,02,16,16,27.40
2017,09,02,16,17,27.50
2017,09,02,16,18,27.60
2017,09,02,16,19,27.60
2017,09,02,16,20,27.60
2017,09,02,16,21,27.60
2017,09,02,16,22,27.70
2017,09,02,16,23,27.70
2017,09,02,16,24,27.70
2017,09,02,16,25,27.70
2017,09,02,16,26,27.70
2017,09,02,16,27,27.70
2017,09,02,16,28,27.70
2017,09,02,16,29,27.70
2017,09,02,16,30,27.70
2017,09,02,16,31,27.80
2017,09,02,16,32,27.80
2017,09,02,16,33,27.80
2017,09,02,16,34,27.90
2017,09,02,16,35,28.00
2017,09,02,16,36,28.10
2017,09,02,16,37,28.10
2017,09,02,16,38,28.20
2017,09,02,16,39,28.20
2017,09,02,16,40,28.20
2017,09,02,16,41,28.30
2017,09,02,16,42,28.30
2017,09,02,16,43,28.30
2017,09,02,16,44,28.30
2017,09,02,16,45,28.30
2017,09,02,16,46,28.40
2017,09,02,16,47,28.40
2017,09,02,16,48,28.50
2017,09,02,16,49,28.50
2017,09,02,16,50,28.60
2017,09,02,16,51,28.70
2017,09,02,16,52,28.80
2017,09,02,16,53,28.90
2017,09,02,16,54,29.00
2017,09,02,16,55,29.00
2017,09,02,16,56,29.00
2017,09,02,16,57,29.10
2017,09,02,16,58,29.10
2017,09,02,16,59,29.20
2017,09,02,17,00,29.20
2017,09,02,17,01,29.30
2017,09,02,17,02,29.30
2017,09,02,17,03,29.30
2017,09,02,17,04,29.30
2017,09,02,17,05,29.30
2017,09,02,17,06,29.20
2017,09,02,17,07,29.20
2017,09,02,17,08,29.20
2017,09,02,17,09,29.20
2017,09,02,17,10,29.10
2017,09,02,17,11,29.10
2017,09,02,17,12,29.00
2017,09,02,17,13,28.90
2017,09,02,17,14,28.90
2017,09,02,17,15,28.80
2017,09,02,17,16,28.80
2017,09,02,17,17,28.70
2017,09,02,17,18,28.60
2017,09,02,17,19,28.60